Location: Bush Observatory
(40.2653°N, 94.3194°W)
Time: 00:20:08
(UTC-05:00)

Vanguard 1 - Visible Passes

Search period start: 24 June 2018 00:00
Search period end: 04 July 2018 00:00
Orbit: 650 x 3833 km, 34.3° (Epoch: 23 June)

Date Brightness Start Highest point End Pass type
(mag) Time Alt. Az. Time Alt. Az. Time Alt. Az.
26 Jun 12.1 04:04:27 10° SSE 04:08:34 16° SE 04:13:58 10° E visible
27 Jun 11.9 04:23:47 11° S 04:28:48 23° SE 04:36:27 10° E visible
28 Jun 11.7 04:43:34 11° SSW 04:49:09 31° SE 04:58:23 10° E visible
29 Jun 11.5 05:03:33 10° SW 05:09:39 39° SSE 05:20:05 10° E visible
30 Jun 11.9 03:10:25 12° SE 03:11:29 12° SE 03:14:08 10° ESE visible
01 Jul 11.5 03:30:10 17° SSE 03:31:46 19° SE 03:36:56 10° E visible
02 Jul 11.1 03:49:56 21° S 03:52:10 26° SE 03:58:51 10° E visible
03 Jul 10.9 04:09:41 22° SSW 04:12:41 34° SSE 04:20:27 10° E visible
